Location: Paddlesworth
(51.1000°N, 1.1333°E)
Time: 09:12:01
(UTC+00:00)

Cosmos 1602 - Pass Details

Date: 11 May 2021
Orbit: 514 x 532 km, 82.5° (Epoch: 15 June)

Event Time Altitude Azimuth Distance (km) Brightness Sun altitude
Rises 20:19:05 0° 350° (N) 2,657 8.2 -6.6°
Reaches altitude 10° 20:21:13 10° 351° (N) 1,767 7.2 -6.9°
Maximum altitude 20:25:06 83° 79° (E) 534 3.7 -7.4°
Drops below altitude 10° 20:28:59 10° 168° (SSE) 1,762 5.9 -7.8°
Enters shadow 20:29:57 - 169° (S) 2,167 6.4 -7.9°
